Gage, OK

11:21 AM CST on February 23, 2017 (GMT -0600)
Gage

Weather History for KGAG - March, 2013

Change the Weather History Date:

Friday, March 29, 2013

  Actual Average Record
Temperature  
Mean Temperature 58 °F -  
Max Temperature 73 °F 61 °F 92 °F (1967)
Min Temperature 44 °F 37 °F 17 °F (1970)
Degree Days  
Heating Degree Days 6    
Growing Degree Days 8 (Base 50)    
Moisture  
Dew Point 51 °F    
Average Humidity 83    
Maximum Humidity 100    
Minimum Humidity 49    
Precipitation  
Precipitation 0.00 in - - ()
Sea Level Pressure  
Sea Level Pressure 30.03 in    
Wind  
Wind Speed 5 mph (East)    
Max Wind Speed 14 mph    
Max Gust Speed 20 mph    
Visibility 7 miles    
Events Fog    
Averages and records for this station are not official NWS values.
T = Trace of Precipitation, MM = Missing Value Source: NWS Daily Summary

Daily Weather History Graph

Daily Weather History Graph

Search for Another Location

Airport or City:

Trip Planner

Search our weather history database for the weather conditions in past years. The results will help you decide how hot, cold, wet, or windy it might be!

Date:

Astronomy

Mar. 29, 2013 Rise Set
Actual Time 7:29 AM CDT 7:58 PM CDT
Civil Twilight 7:03 AM CDT 8:24 PM CDT
Nautical Twilight 6:33 AM CDT 8:55 PM CDT
Astronomical Twilight 6:02 AM CDT 9:26 PM CDT
Moon 10:54 PM CDT (3/29) 8:44 AM CDT (3/29)
Length of Visible Light 13h 21m
Length of Day
12h 29m
Waning Gibbous, 93% of the Moon is Illuminated
Mar 29
Waning Gibbous
Apr 2
Last Quarter
Apr 10
New
Apr 18
First Quarter
Apr 25
Full

Hourly Weather History & Observations

Time (CDT) Temp. Windchill Dew Point Humidity Pressure Visibility Wind Dir Wind Speed Gust Speed Precip Events Conditions
12:53 AM 51.1 °F - 46.9 °F 86% 30.03 in 10.0 mi Calm Calm - N/A   Clear
1:53 AM 48.9 °F - 46.0 °F 90% 30.04 in 10.0 mi Calm Calm - N/A   Clear
2:53 AM 52.0 °F - 48.9 °F 89% 30.03 in 10.0 mi East 3.5 mph - N/A   Clear
3:53 AM 50.0 °F - 48.0 °F 93% 30.03 in 10.0 mi ESE 3.5 mph - N/A   Clear
4:53 AM 46.9 °F - 46.9 °F 100% 30.01 in 6.0 mi East 3.5 mph - N/A   Clear
5:08 AM 48.2 °F - 46.4 °F 93% 30.04 in 1.2 mi NE 4.6 mph - N/A   Partly Cloudy
5:10 AM 46.4 °F 44.3 °F 46.4 °F 100% 30.04 in 0.8 mi NE 4.6 mph - N/A   Mist
5:32 AM 44.6 °F 42.2 °F 44.6 °F 100% 30.04 in 0.2 mi NE 4.6 mph - N/A Fog Fog
5:53 AM 45.0 °F 43.5 °F 45.0 °F 100% 30.01 in 0.2 mi ENE 3.5 mph - N/A Fog Fog
6:53 AM 45.0 °F - 45.0 °F 100% 30.03 in 0.2 mi Calm Calm - N/A Fog Fog
7:53 AM 48.9 °F - 48.9 °F 100% 30.04 in 0.2 mi NE 3.5 mph - N/A Fog Fog
8:53 AM 48.9 °F - 48.9 °F 100% 30.08 in 0.2 mi NE 8.1 mph - N/A Fog Fog
9:53 AM 51.1 °F - 51.1 °F 100% 30.09 in 0.2 mi ENE 6.9 mph - N/A Fog Fog
10:45 AM 53.6 °F - 53.6 °F 100% 30.10 in 1.2 mi ENE 8.1 mph - N/A   Overcast
10:53 AM 52.0 °F - 52.0 °F 100% 30.09 in 1.8 mi ENE 5.8 mph - N/A   Overcast
11:12 AM 53.6 °F - 53.6 °F 100% 30.10 in 3.0 mi East 4.6 mph - N/A   Overcast
11:53 AM 55.0 °F - 53.1 °F 93% 30.07 in 8.0 mi East 8.1 mph - N/A   Overcast
12:14 PM 59.0 °F - 53.6 °F 82% 30.09 in 10.0 mi East 5.8 mph - N/A   Overcast
12:42 PM 62.6 °F - 53.6 °F 72% 30.08 in 10.0 mi East 6.9 mph - N/A   Overcast
1:03 PM 64.4 °F - 53.6 °F 68% 30.08 in 10.0 mi ESE 6.9 mph - N/A   Scattered Clouds
1:53 PM 66.0 °F - 54.0 °F 65% 30.03 in 10.0 mi ESE 9.2 mph - N/A   Partly Cloudy
2:53 PM 68.0 °F - 53.1 °F 59% 29.99 in 10.0 mi ESE 13.8 mph - N/A   Partly Cloudy
3:53 PM 70.0 °F - 53.1 °F 55% 29.98 in 10.0 mi ESE 13.8 mph 18.4 mph N/A   Mostly Cloudy
4:53 PM 73.0 °F - 53.1 °F 49% 29.96 in 10.0 mi ESE 13.8 mph - N/A   Mostly Cloudy
5:53 PM 72.0 °F - 53.1 °F 51% 29.95 in 10.0 mi SE 11.5 mph - N/A   Scattered Clouds
6:53 PM 71.1 °F - 52.0 °F 51% 29.95 in 10.0 mi SE 13.8 mph 19.6 mph N/A   Scattered Clouds
7:53 PM 64.9 °F - 52.0 °F 63% 29.96 in 10.0 mi SSE 8.1 mph - N/A   Clear
8:53 PM 61.0 °F - 52.0 °F 72% 29.96 in 10.0 mi ESE 5.8 mph - N/A   Clear
9:53 PM 60.1 °F - 53.1 °F 78% 29.98 in 10.0 mi SE 5.8 mph - N/A   Mostly Cloudy
10:53 PM 61.0 °F - 54.0 °F 78% 29.98 in 10.0 mi South 6.9 mph - N/A   Mostly Cloudy
11:53 PM 60.1 °F - 54.0 °F 80% 29.96 in 10.0 mi SSE 12.7 mph - N/A   Mostly Cloudy